Time,TemperatureF,DewpointF,PressureIn,WindDirection,WindDirectionDegrees,WindSpeedMPH,WindSpeedGustMPH,Humidity,HourlyPrecipIn,Conditions,Clouds,dailyrainin,SoftwareType,DateUTC
2013-02-23 00:00:00,30.9,22.3,30.27,SE,129,1.0,3.0,70,0.00,,,0.00,meteohub,2013-02-23 05:00:00,
2013-02-23 00:01:00,30.9,21.9,30.27,SE,135,0.0,3.0,69,0.00,,,0.00,meteohub,2013-02-23 05:01:00,
2013-02-23 00:02:00,30.9,21.9,30.27,SE,135,1.0,3.0,69,0.00,,,0.00,meteohub,2013-02-23 05:02:00,
2013-02-23 00:07:00,30.7,22.5,30.27,SSE,150,0.0,5.0,71,0.00,,,0.00,meteohub,2013-02-23 05:07:00,
2013-02-23 00:12:00,30.7,22.1,30.27,East,101,0.0,5.0,70,0.00,,,0.00,meteohub,2013-02-23 05:12:00,
2013-02-23 00:17:00,30.7,22.5,30.27,East,101,0.0,5.0,71,0.00,,,0.00,meteohub,2013-02-23 05:17:00,
2013-02-23 00:22:00,30.6,22.3,30.27,East,101,0.0,3.0,71,0.00,,,0.00,meteohub,2013-02-23 05:22:00,
2013-02-23 00:27:00,30.6,22.3,30.27,East,101,0.0,1.0,71,0.00,,,0.00,meteohub,2013-02-23 05:27:00,
2013-02-23 00:32:00,30.4,22.5,30.27,ESE,109,1.0,0.0,72,0.00,,,0.00,meteohub,2013-02-23 05:32:00,
2013-02-23 00:37:00,30.4,22.8,30.26,ESE,120,3.0,3.0,73,0.00,,,0.00,meteohub,2013-02-23 05:37:00,
2013-02-23 00:42:00,30.4,22.5,30.26,SE,126,5.0,5.0,72,0.00,,,0.00,meteohub,2013-02-23 05:42:00,
2013-02-23 00:47:00,30.6,22.6,30.26,SE,127,3.0,8.0,72,0.00,,,0.00,meteohub,2013-02-23 05:47:00,
2013-02-23 00:53:00,30.6,22.6,30.26,SE,139,5.0,8.0,72,0.00,,,0.00,meteohub,2013-02-23 05:53:00,
2013-02-23 00:58:00,30.6,22.6,30.25,SE,143,3.0,9.0,72,0.00,,,0.00,meteohub,2013-02-23 05:58:00,
2013-02-23 01:03:00,30.6,22.6,30.26,SE,126,2.0,9.0,72,0.00,,,0.00,meteohub,2013-02-23 06:03:00,
2013-02-23 01:08:00,30.6,23.0,30.26,SE,127,1.0,9.0,73,0.00,,,0.00,meteohub,2013-02-23 06:08:00,
2013-02-23 01:13:00,30.6,23.0,30.25,ESE,105,0.0,9.0,73,0.00,,,0.00,meteohub,2013-02-23 06:13:00,
2013-02-23 01:18:00,30.6,23.0,30.25,ESE,120,0.0,8.0,73,0.00,,,0.00,meteohub,2013-02-23 06:18:00,
2013-02-23 01:24:00,30.6,23.2,30.25,ESE,120,1.0,6.0,74,0.00,,,0.00,meteohub,2013-02-23 06:24:00,
2013-02-23 01:29:00,30.6,23.2,30.25,SE,124,2.0,7.0,74,0.00,,,0.00,meteohub,2013-02-23 06:29:00,
2013-02-23 01:34:00,30.6,23.2,30.25,SSE,147,1.0,7.0,74,0.00,,,0.00,meteohub,2013-02-23 06:34:00,
2013-02-23 01:39:00,30.4,23.4,30.25,SE,126,2.0,7.0,75,0.00,,,0.00,meteohub,2013-02-23 06:39:00,
2013-02-23 01:44:00,30.4,23.4,30.25,SE,128,1.0,4.0,75,0.00,,,0.00,meteohub,2013-02-23 06:44:00,
2013-02-23 01:49:00,30.4,23.4,30.25,SE,128,0.0,3.0,75,0.00,,,0.00,meteohub,2013-02-23 06:49:00,
2013-02-23 01:54:00,30.4,23.4,30.25,ESE,115,2.0,8.0,75,0.00,,,0.00,meteohub,2013-02-23 06:54:00,
2013-02-23 01:59:00,30.4,23.7,30.25,SE,124,1.0,8.0,76,0.00,,,0.00,meteohub,2013-02-23 06:59:00,
2013-02-23 02:04:00,30.4,23.7,30.25,East,93,1.0,8.0,76,0.00,,,0.00,meteohub,2013-02-23 07:04:00,
2013-02-23 02:09:00,30.4,23.7,30.25,ESE,105,2.0,7.0,76,0.00,,,0.00,meteohub,2013-02-23 07:09:00,
2013-02-23 02:14:00,30.4,24.1,30.25,SE,126,3.0,6.0,77,0.00,,,0.00,meteohub,2013-02-23 07:14:00,
2013-02-23 02:19:00,30.4,24.1,30.25,ESE,118,1.0,6.0,77,0.00,,,0.00,meteohub,2013-02-23 07:19:00,
2013-02-23 02:24:00,30.4,24.1,30.25,SE,133,3.0,7.0,77,0.00,,,0.00,meteohub,2013-02-23 07:24:00,
2013-02-23 02:29:00,30.4,24.1,30.25,ESE,118,3.0,7.0,77,0.00,,,0.00,meteohub,2013-02-23 07:29:00,
2013-02-23 02:34:00,30.4,24.1,30.24,ESE,112,1.0,8.0,77,0.00,,,0.00,meteohub,2013-02-23 07:34:00,
2013-02-23 02:39:00,30.4,24.3,30.24,ESE,118,2.0,8.0,78,0.00,,,0.00,meteohub,2013-02-23 07:39:00,
2013-02-23 02:44:00,30.4,24.3,30.24,ESE,114,1.0,7.0,78,0.00,,,0.00,meteohub,2013-02-23 07:44:00,
2013-02-23 02:49:00,30.4,24.3,30.24,SE,129,5.0,8.0,78,0.00,,,0.00,meteohub,2013-02-23 07:49:00,
2013-02-23 02:55:00,30.4,24.6,30.23,SE,143,5.0,8.0,79,0.00,,,0.00,meteohub,2013-02-23 07:55:00,
2013-02-23 03:00:00,30.4,24.6,30.23,ESE,112,2.0,10.0,79,0.00,,,0.00,meteohub,2013-02-23 08:00:00,
2013-02-23 03:05:00,30.4,25.0,30.23,East,94,4.0,10.0,80,0.00,,,0.00,meteohub,2013-02-23 08:05:00,
2013-02-23 03:10:00,30.4,25.0,30.23,SE,125,3.0,10.0,80,0.00,,,0.00,meteohub,2013-02-23 08:10:00,
2013-02-23 03:15:00,30.2,25.2,30.23,SE,132,5.0,6.0,81,0.00,,,0.00,meteohub,2013-02-23 08:15:00,
2013-02-23 03:20:00,30.2,25.2,30.22,SE,129,3.0,7.0,81,0.00,,,0.00,meteohub,2013-02-23 08:20:00,
2013-02-23 03:25:00,30.0,25.0,30.22,SE,125,3.0,7.0,81,0.00,,,0.00,meteohub,2013-02-23 08:25:00,
2013-02-23 03:30:00,30.0,25.2,30.22,SSE,166,3.0,7.0,82,0.00,,,0.00,meteohub,2013-02-23 08:30:00,
2013-02-23 03:35:00,30.0,25.2,30.22,ESE,116,1.0,9.0,82,0.00,,,0.00,meteohub,2013-02-23 08:35:00,
2013-02-23 03:40:00,29.8,25.0,30.22,ESE,110,2.0,9.0,82,0.00,,,0.00,meteohub,2013-02-23 08:40:00,
2013-02-23 03:45:00,29.8,25.0,30.21,ESE,114,0.0,9.0,82,0.00,,,0.00,meteohub,2013-02-23 08:45:00,
2013-02-23 03:50:00,29.8,25.3,30.21,ESE,111,1.0,8.0,83,0.00,,,0.00,meteohub,2013-02-23 08:50:00,
2013-02-23 03:56:00,29.7,24.8,30.22,ESE,118,2.0,8.0,82,0.00,,,0.00,meteohub,2013-02-23 08:56:00,
2013-02-23 04:01:00,29.7,25.2,30.21,ESE,117,3.0,8.0,83,0.00,,,0.00,meteohub,2013-02-23 09:01:00,
2013-02-23 04:06:00,29.7,25.2,30.22,ESE,116,3.0,8.0,83,0.00,,,0.00,meteohub,2013-02-23 09:06:00,
2013-02-23 04:11:00,29.7,25.2,30.22,ESE,116,0.0,7.0,83,0.00,,,0.00,meteohub,2013-02-23 09:11:00,
2013-02-23 04:16:00,29.7,25.2,30.21,ESE,106,0.0,7.0,83,0.00,,,0.00,meteohub,2013-02-23 09:16:00,
2013-02-23 04:21:00,29.5,25.2,30.22,ESE,116,1.0,7.0,84,0.00,,,0.00,meteohub,2013-02-23 09:21:00,
2013-02-23 04:26:00,29.5,25.2,30.22,SE,135,3.0,7.0,84,0.00,,,0.00,meteohub,2013-02-23 09:26:00,
2013-02-23 04:31:00,29.5,25.2,30.21,SE,131,1.0,7.0,84,0.00,,,0.00,meteohub,2013-02-23 09:31:00,
2013-02-23 04:36:00,29.5,25.2,30.21,ESE,113,0.0,7.0,84,0.00,,,0.00,meteohub,2013-02-23 09:36:00,
2013-02-23 04:41:00,29.5,25.2,30.21,ESE,122,2.0,7.0,84,0.00,,,0.00,meteohub,2013-02-23 09:41:00,
2013-02-23 04:46:00,29.3,25.2,30.21,SE,126,1.0,5.0,84,0.00,,,0.00,meteohub,2013-02-23 09:46:00,
2013-02-23 04:51:00,29.3,25.2,30.21,East,93,0.0,3.0,84,0.00,,,0.00,meteohub,2013-02-23 09:51:00,
2013-02-23 04:56:00,29.5,25.2,30.22,ESE,104,0.0,3.0,84,0.00,,,0.00,meteohub,2013-02-23 09:56:00,
2013-02-23 05:01:00,29.5,25.2,30.21,ESE,110,0.0,3.0,84,0.00,,,0.00,meteohub,2013-02-23 10:01:00,
2013-02-23 05:06:00,29.5,25.2,30.21,SSE,148,0.0,3.0,84,0.00,,,0.00,meteohub,2013-02-23 10:06:00,
2013-02-23 05:11:00,29.5,25.2,30.21,SE,130,0.0,3.0,84,0.00,,,0.00,meteohub,2013-02-23 10:11:00,
2013-02-23 05:16:00,29.5,25.0,30.20,ESE,117,1.0,3.0,83,0.00,,,0.00,meteohub,2013-02-23 10:16:00,
2013-02-23 05:21:00,29.5,25.0,30.21,SE,128,2.0,5.0,83,0.00,,,0.00,meteohub,2013-02-23 10:21:00,
2013-02-23 05:26:00,29.7,24.8,30.20,SE,137,0.0,5.0,82,0.00,,,0.00,meteohub,2013-02-23 10:26:00,
2013-02-23 05:31:00,29.7,25.2,30.20,SE,137,1.0,7.0,83,0.00,,,0.00,meteohub,2013-02-23 10:31:00,
2013-02-23 05:36:00,29.7,25.2,30.20,ESE,104,1.0,7.0,83,0.00,,,0.00,meteohub,2013-02-23 10:36:00,
2013-02-23 05:41:00,29.7,25.2,30.20,SE,126,1.0,6.0,83,0.00,,,0.00,meteohub,2013-02-23 10:41:00,
2013-02-23 05:47:00,29.7,25.2,30.20,ESE,110,0.0,6.0,83,0.00,,,0.00,meteohub,2013-02-23 10:47:00,
2013-02-23 05:52:00,29.7,24.8,30.20,ESE,110,4.0,6.0,82,0.00,,,0.00,meteohub,2013-02-23 10:52:00,
2013-02-23 05:57:00,29.7,24.8,30.20,ESE,107,1.0,6.0,82,0.00,,,0.00,meteohub,2013-02-23 10:57:00,
2013-02-23 06:02:00,29.7,24.8,30.20,SE,135,3.0,10.0,82,0.00,,,0.00,meteohub,2013-02-23 11:02:00,
2013-02-23 06:07:00,29.7,24.6,30.19,SE,141,4.0,10.0,81,0.00,,,0.00,meteohub,2013-02-23 11:07:00,
2013-02-23 06:12:00,29.7,24.8,30.19,ESE,112,1.0,10.0,82,0.00,,,0.00,meteohub,2013-02-23 11:12:00,
2013-02-23 06:17:00,29.7,24.8,30.19,SE,126,1.0,10.0,82,0.00,,,0.00,meteohub,2013-02-23 11:17:00,
2013-02-23 06:22:00,29.7,24.8,30.19,ESE,106,4.0,10.0,82,0.00,,,0.00,meteohub,2013-02-23 11:22:00,
2013-02-23 06:27:00,29.5,24.6,30.19,ESE,114,3.0,7.0,82,0.00,,,0.00,meteohub,2013-02-23 11:27:00,
2013-02-23 06:32:00,29.5,24.6,30.19,ESE,120,6.0,7.0,82,0.00,,,0.00,meteohub,2013-02-23 11:32:00,
2013-02-23 06:37:00,29.5,24.6,30.19,SE,140,1.0,7.0,82,0.00,,,0.00,meteohub,2013-02-23 11:37:00,
2013-02-23 06:42:00,29.5,25.0,30.18,East,97,3.0,8.0,83,0.00,,,0.00,meteohub,2013-02-23 11:42:00,
2013-02-23 06:47:00,29.5,25.0,30.19,SE,137,2.0,9.0,83,0.00,,,0.00,meteohub,2013-02-23 11:47:00,
2013-02-23 06:52:00,29.5,25.2,30.19,ESE,120,3.0,9.0,84,0.00,,,0.00,meteohub,2013-02-23 11:52:00,
2013-02-23 06:57:00,29.3,25.2,30.19,SE,142,3.0,9.0,84,0.00,,,0.00,meteohub,2013-02-23 11:57:00,
2013-02-23 07:02:00,29.3,25.2,30.18,ESE,118,3.0,7.0,84,0.00,,,0.00,meteohub,2013-02-23 12:02:00,
2013-02-23 07:07:00,29.3,25.2,30.18,SE,126,5.0,7.0,84,0.00,,,0.00,meteohub,2013-02-23 12:07:00,
2013-02-23 07:12:00,29.1,25.0,30.18,SE,128,0.0,7.0,84,0.00,,,0.00,meteohub,2013-02-23 12:12:00,
2013-02-23 07:17:00,29.1,25.0,30.18,ESE,120,2.0,8.0,84,0.00,,,0.00,meteohub,2013-02-23 12:17:00,
2013-02-23 07:22:00,29.3,24.8,30.18,SE,135,1.0,8.0,83,0.00,,,0.00,meteohub,2013-02-23 12:22:00,
2013-02-23 07:27:00,29.3,24.8,30.19,ESE,112,2.0,8.0,83,0.00,,,0.00,meteohub,2013-02-23 12:27:00,
2013-02-23 07:32:00,29.3,24.8,30.19,SE,127,3.0,8.0,83,0.00,,,0.00,meteohub,2013-02-23 12:32:00,
2013-02-23 07:37:00,29.3,24.8,30.18,SE,128,1.0,8.0,83,0.00,,,0.00,meteohub,2013-02-23 12:37:00,
2013-02-23 07:42:00,29.3,25.2,30.18,ESE,116,5.0,8.0,84,0.00,,,0.00,meteohub,2013-02-23 12:42:00,
2013-02-23 07:47:00,29.3,24.8,30.19,ESE,122,7.0,7.0,83,0.00,,,0.00,meteohub,2013-02-23 12:47:00,
2013-02-23 07:52:00,29.5,25.0,30.19,SE,126,1.0,7.0,83,0.00,,,0.00,meteohub,2013-02-23 12:52:00,
2013-02-23 07:57:00,29.5,24.6,30.19,East,101,3.0,7.0,82,0.00,,,0.00,meteohub,2013-02-23 12:57:00,
2013-02-23 08:02:00,29.5,24.6,30.18,SE,126,5.0,7.0,82,0.00,,,0.00,meteohub,2013-02-23 13:02:00,
2013-02-23 08:07:00,29.5,24.6,30.18,SE,145,2.0,7.0,82,0.00,,,0.00,meteohub,2013-02-23 13:07:00,
2013-02-23 08:12:00,29.5,24.6,30.18,SE,124,3.0,7.0,82,0.00,,,0.00,meteohub,2013-02-23 13:12:00,
2013-02-23 08:17:00,29.7,24.8,30.18,SE,125,2.0,7.0,82,0.00,,,0.00,meteohub,2013-02-23 13:17:00,
2013-02-23 08:22:00,29.7,24.6,30.18,SE,130,3.0,7.0,81,0.00,,,0.00,meteohub,2013-02-23 13:22:00,
2013-02-23 08:27:00,29.7,24.6,30.18,ESE,115,3.0,7.0,81,0.00,,,0.00,meteohub,2013-02-23 13:27:00,
2013-02-23 08:32:00,29.7,24.8,30.18,SE,143,0.0,7.0,82,0.00,,,0.00,meteohub,2013-02-23 13:32:00,
2013-02-23 08:37:00,29.8,24.8,30.18,ESE,122,0.0,7.0,81,0.00,,,0.00,meteohub,2013-02-23 13:37:00,
2013-02-23 08:42:00,30.0,25.2,30.18,ESE,122,0.0,7.0,82,0.00,,,0.00,meteohub,2013-02-23 13:42:00,
2013-02-23 08:47:00,30.0,25.0,30.18,SE,129,2.0,3.0,81,0.00,,,0.00,meteohub,2013-02-23 13:47:00,
2013-02-23 08:52:00,30.0,25.0,30.17,SE,127,0.0,3.0,81,0.00,,,0.00,meteohub,2013-02-23 13:52:00,
2013-02-23 08:57:00,30.0,24.6,30.17,NNE,14,1.0,6.0,80,0.00,,,0.00,meteohub,2013-02-23 13:57:00,
2013-02-23 09:02:00,30.0,24.6,30.17,ESE,121,2.0,6.0,80,0.00,,,0.00,meteohub,2013-02-23 14:02:00,
2013-02-23 09:07:00,30.0,24.6,30.17,ESE,103,2.0,10.0,80,0.00,,,0.00,meteohub,2013-02-23 14:07:00,
2013-02-23 09:12:00,30.0,25.0,30.17,ESE,110,2.0,10.0,81,0.00,,,0.00,meteohub,2013-02-23 14:12:00,
2013-02-23 09:17:00,30.0,25.0,30.17,SE,131,3.0,10.0,81,0.00,,,0.00,meteohub,2013-02-23 14:17:00,
2013-02-23 09:22:00,30.0,25.0,30.17,ESE,116,1.0,10.0,81,0.00,,,0.00,meteohub,2013-02-23 14:22:00,
2013-02-23 09:27:00,30.0,25.2,30.16,ESE,120,3.0,10.0,82,0.00,,,0.00,meteohub,2013-02-23 14:27:00,
2013-02-23 09:33:00,30.2,25.2,30.16,SE,125,1.0,8.0,81,0.00,,,0.00,meteohub,2013-02-23 14:33:00,
2013-02-23 09:38:00,30.2,25.2,30.16,East,92,2.0,7.0,81,0.00,,,0.00,meteohub,2013-02-23 14:38:00,
2013-02-23 09:43:00,30.4,25.3,30.16,SE,124,5.0,5.0,81,0.00,,,0.00,meteohub,2013-02-23 14:43:00,
2013-02-23 09:48:00,30.4,25.5,30.15,SE,130,1.0,6.0,82,0.00,,,0.00,meteohub,2013-02-23 14:48:00,
2013-02-23 09:53:00,30.4,25.5,30.16,SE,130,2.0,9.0,82,0.00,,,0.00,meteohub,2013-02-23 14:53:00,
2013-02-23 09:58:00,30.4,25.5,30.15,ESE,118,2.0,9.0,82,0.00,,,0.00,meteohub,2013-02-23 14:58:00,
2013-02-23 10:03:00,30.6,25.7,30.15,SE,137,0.0,9.0,82,0.00,,,0.00,meteohub,2013-02-23 15:03:00,
2013-02-23 10:08:00,30.6,25.7,30.16,SE,135,1.0,9.0,82,0.00,,,0.00,meteohub,2013-02-23 15:08:00,
2013-02-23 10:13:00,30.6,25.7,30.16,SE,125,6.0,9.0,82,0.00,,,0.00,meteohub,2013-02-23 15:13:00,
2013-02-23 10:18:00,30.6,25.7,30.16,ESE,121,5.0,6.0,82,0.00,,,0.00,meteohub,2013-02-23 15:18:00,
2013-02-23 10:23:00,30.6,25.7,30.16,ESE,114,1.0,7.0,82,0.00,,,0.00,meteohub,2013-02-23 15:23:00,
2013-02-23 10:28:00,30.6,26.1,30.15,SE,128,5.0,7.0,83,0.00,,,0.00,meteohub,2013-02-23 15:28:00,
2013-02-23 10:33:00,30.6,26.2,30.15,ESE,122,2.0,7.0,84,0.00,,,0.00,meteohub,2013-02-23 15:33:00,
2013-02-23 10:38:00,30.6,26.2,30.15,ESE,121,6.0,9.0,84,0.00,,,0.00,meteohub,2013-02-23 15:38:00,
2013-02-23 10:43:00,30.6,26.6,30.14,ESE,104,2.0,9.0,85,0.00,,,0.00,meteohub,2013-02-23 15:43:00,
2013-02-23 10:48:00,30.6,26.6,30.14,East,99,1.0,8.0,85,0.00,,,0.00,meteohub,2013-02-23 15:48:00,
2013-02-23 10:53:00,30.6,27.0,30.14,SE,131,1.0,8.0,86,0.00,,,0.00,meteohub,2013-02-23 15:53:00,
2013-02-23 10:58:00,30.6,27.0,30.13,ESE,114,1.0,6.0,86,0.00,,,0.00,meteohub,2013-02-23 15:58:00,
2013-02-23 11:03:00,30.6,27.1,30.13,ESE,116,0.0,6.0,87,0.00,,,0.00,meteohub,2013-02-23 16:03:00,
2013-02-23 11:08:00,30.6,27.0,30.13,East,98,0.0,5.0,86,0.00,,,0.00,meteohub,2013-02-23 16:08:00,
2013-02-23 11:13:00,30.6,27.1,30.13,SE,141,1.0,5.0,87,0.00,,,0.00,meteohub,2013-02-23 16:13:00,
2013-02-23 11:18:00,30.6,27.1,30.12,ESE,120,3.0,3.0,87,0.00,,,0.00,meteohub,2013-02-23 16:18:00,
2013-02-23 11:23:00,30.6,27.1,30.13,SE,129,5.0,5.0,87,0.00,,,0.00,meteohub,2013-02-23 16:23:00,
2013-02-23 11:29:00,30.6,27.5,30.12,ESE,122,0.0,5.0,88,0.00,,,0.00,meteohub,2013-02-23 16:29:00,
2013-02-23 11:34:00,30.4,27.3,30.12,East,93,0.0,5.0,88,0.00,,,0.00,meteohub,2013-02-23 16:34:00,
2013-02-23 11:39:00,30.6,27.5,30.12,ESE,122,2.0,5.0,88,0.00,,,0.00,meteohub,2013-02-23 16:39:00,
2013-02-23 11:44:00,30.6,27.7,30.12,ESE,123,3.0,5.0,89,0.00,,,0.00,meteohub,2013-02-23 16:44:00,
2013-02-23 11:49:00,30.6,27.7,30.12,ESE,104,0.0,5.0,89,0.00,,,0.00,meteohub,2013-02-23 16:49:00,
2013-02-23 11:54:00,30.6,28.0,30.11,SE,136,2.0,5.0,90,0.00,,,0.00,meteohub,2013-02-23 16:54:00,
2013-02-23 11:59:00,30.6,28.0,30.11,SE,132,2.0,5.0,90,0.00,,,0.00,meteohub,2013-02-23 16:59:00,
2013-02-23 12:04:00,30.6,28.0,30.11,SE,133,0.0,5.0,90,0.00,,,0.00,meteohub,2013-02-23 17:04:00,
2013-02-23 12:09:00,30.6,27.7,30.10,ESE,123,2.0,5.0,89,0.00,,,0.00,meteohub,2013-02-23 17:09:00,
2013-02-23 12:14:00,30.6,28.0,30.10,ESE,110,0.0,5.0,90,0.00,,,0.00,meteohub,2013-02-23 17:14:00,
2013-02-23 12:19:00,30.7,27.9,30.10,ESE,117,0.0,5.0,89,0.00,,,0.00,meteohub,2013-02-23 17:19:00,
2013-02-23 12:24:00,30.7,28.2,30.10,ESE,111,0.0,5.0,90,0.00,,,0.00,meteohub,2013-02-23 17:24:00,
2013-02-23 12:29:00,30.7,28.2,30.10,SE,139,0.0,5.0,90,0.00,,,0.00,meteohub,2013-02-23 17:29:00,
2013-02-23 12:34:00,30.7,28.2,30.10,ESE,112,0.0,5.0,90,0.00,,,0.00,meteohub,2013-02-23 17:34:00,
2013-02-23 12:39:00,30.7,28.2,30.10,ESE,112,0.0,7.0,90,0.00,,,0.00,meteohub,2013-02-23 17:39:00,
2013-02-23 12:44:00,30.7,28.2,30.10,ESE,105,0.0,7.0,90,0.00,,,0.00,meteohub,2013-02-23 17:44:00,
2013-02-23 12:49:00,30.7,28.2,30.10,ESE,105,0.0,3.0,90,0.00,,,0.00,meteohub,2013-02-23 17:49:00,
2013-02-23 12:54:00,30.7,28.2,30.09,North,4,0.0,1.0,90,0.00,,,0.00,meteohub,2013-02-23 17:54:00,
2013-02-23 12:59:00,30.7,28.2,30.10,North,2,0.0,2.0,90,0.00,,,0.00,meteohub,2013-02-23 17:59:00,
2013-02-23 13:04:00,30.7,28.4,30.10,North,1,0.0,2.0,91,0.00,,,0.00,meteohub,2013-02-23 18:04:00,
2013-02-23 13:09:00,30.7,28.4,30.09,ESE,109,0.0,2.0,91,0.00,,,0.00,meteohub,2013-02-23 18:09:00,
2013-02-23 13:14:00,30.9,28.6,30.09,ESE,109,0.0,2.0,91,0.00,,,0.00,meteohub,2013-02-23 18:14:00,
2013-02-23 13:19:00,30.9,28.6,30.09,ESE,109,0.0,2.0,91,0.00,,,0.00,meteohub,2013-02-23 18:19:00,
2013-02-23 13:24:00,30.9,28.6,30.09,East,95,1.0,2.0,91,0.00,,,0.00,meteohub,2013-02-23 18:24:00,
2013-02-23 13:30:00,30.9,28.6,30.09,SE,128,1.0,3.0,91,0.00,,,0.00,meteohub,2013-02-23 18:30:00,
2013-02-23 13:35:00,30.9,28.6,30.09,ESE,122,1.0,3.0,91,0.00,,,0.00,meteohub,2013-02-23 18:35:00,
2013-02-23 13:40:00,30.9,28.6,30.09,ESE,118,1.0,3.0,91,0.00,,,0.00,meteohub,2013-02-23 18:40:00,
2013-02-23 13:45:00,30.9,28.6,30.08,ESE,120,0.0,3.0,91,0.00,,,0.00,meteohub,2013-02-23 18:45:00,
2013-02-23 13:50:00,30.9,28.6,30.08,SE,127,1.0,5.0,91,0.00,,,0.00,meteohub,2013-02-23 18:50:00,
2013-02-23 13:55:00,31.1,28.8,30.07,East,101,0.0,5.0,91,0.00,,,0.00,meteohub,2013-02-23 18:55:00,
2013-02-23 14:00:00,31.3,28.9,30.07,ESE,115,0.0,3.0,91,0.00,,,0.00,meteohub,2013-02-23 19:00:00,
2013-02-23 14:05:00,31.3,28.9,30.07,SE,139,2.0,3.0,91,0.00,,,0.00,meteohub,2013-02-23 19:05:00,
2013-02-23 14:10:00,31.3,28.9,30.08,ESE,120,2.0,3.0,91,0.00,,,0.00,meteohub,2013-02-23 19:10:00,
2013-02-23 14:15:00,31.3,28.9,30.07,SE,133,3.0,3.0,91,0.00,,,0.00,meteohub,2013-02-23 19:15:00,
2013-02-23 14:20:00,31.3,29.3,30.07,ESE,107,2.0,5.0,92,0.00,,,0.00,meteohub,2013-02-23 19:20:00,
2013-02-23 14:25:00,31.5,29.5,30.06,SE,125,3.0,5.0,92,0.00,,,0.00,meteohub,2013-02-23 19:25:00,
2013-02-23 14:30:00,31.5,29.1,30.07,East,91,0.0,5.0,91,0.00,,,0.00,meteohub,2013-02-23 19:30:00,
2013-02-23 14:35:00,31.5,29.1,30.07,ESE,107,0.0,6.0,91,0.00,,,0.00,meteohub,2013-02-23 19:35:00,
2013-02-23 14:40:00,31.5,29.5,30.06,ESE,114,0.0,6.0,92,0.00,,,0.00,meteohub,2013-02-23 19:40:00,
2013-02-23 14:45:00,31.5,29.5,30.06,SE,130,0.0,6.0,92,0.00,,,0.00,meteohub,2013-02-23 19:45:00,
2013-02-23 14:50:00,31.5,29.5,30.06,ESE,117,2.0,3.0,92,0.00,,,0.00,meteohub,2013-02-23 19:50:00,
2013-02-23 14:55:00,31.5,29.5,30.06,ESE,118,1.0,3.0,92,0.00,,,0.00,meteohub,2013-02-23 19:55:00,
2013-02-23 15:00:00,31.5,29.5,30.05,ESE,112,0.0,3.0,92,0.00,,,0.00,meteohub,2013-02-23 20:00:00,
2013-02-23 15:05:00,31.5,29.5,30.05,ESE,123,0.0,3.0,92,0.00,,,0.00,meteohub,2013-02-23 20:05:00,
2013-02-23 15:10:00,31.5,29.5,30.06,SE,133,1.0,3.0,92,0.00,,,0.00,meteohub,2013-02-23 20:10:00,
2013-02-23 15:15:00,31.6,29.7,30.05,East,100,0.0,3.0,92,0.00,,,0.00,meteohub,2013-02-23 20:15:00,
2013-02-23 15:20:00,31.6,29.7,30.06,ESE,113,0.0,3.0,92,0.00,,,0.00,meteohub,2013-02-23 20:20:00,
2013-02-23 15:25:00,31.6,29.7,30.05,East,89,1.0,3.0,92,0.00,,,0.00,meteohub,2013-02-23 20:25:00,
2013-02-23 15:30:00,31.6,29.7,30.05,ESE,117,0.0,3.0,92,0.00,,,0.00,meteohub,2013-02-23 20:30:00,
2013-02-23 15:36:00,31.6,29.7,30.05,SE,126,0.0,3.0,92,0.00,,,0.00,meteohub,2013-02-23 20:36:00,
2013-02-23 15:41:00,31.8,29.8,30.05,NE,48,0.0,2.0,92,0.00,,,0.00,meteohub,2013-02-23 20:41:00,
2013-02-23 15:46:00,31.8,29.8,30.04,East,99,0.0,2.0,92,0.00,,,0.00,meteohub,2013-02-23 20:46:00,
2013-02-23 15:51:00,31.8,30.0,30.04,ESE,117,0.0,2.0,93,0.00,,,0.00,meteohub,2013-02-23 20:51:00,
2013-02-23 15:56:00,31.8,30.0,30.04,ESE,117,0.0,2.0,93,0.00,,,0.00,meteohub,2013-02-23 20:56:00,
2013-02-23 16:01:00,31.8,30.0,30.04,ESE,117,1.0,2.0,93,0.00,,,0.00,meteohub,2013-02-23 21:01:00,
2013-02-23 16:06:00,32.0,30.2,30.04,ESE,117,0.0,1.0,93,0.00,,,0.00,meteohub,2013-02-23 21:06:00,
2013-02-23 16:11:00,32.0,30.2,30.04,East,97,0.0,3.0,93,0.00,,,0.00,meteohub,2013-02-23 21:11:00,
2013-02-23 16:16:00,32.0,30.0,30.04,ESE,108,1.0,5.0,92,0.00,,,0.00,meteohub,2013-02-23 21:16:00,
2013-02-23 16:21:00,32.2,30.2,30.04,East,101,0.0,5.0,92,0.00,,,0.00,meteohub,2013-02-23 21:21:00,
2013-02-23 16:26:00,32.2,30.2,30.04,ESE,112,1.0,5.0,92,0.00,,,0.00,meteohub,2013-02-23 21:26:00,
2013-02-23 16:31:00,32.2,30.2,30.04,ESE,114,0.0,5.0,92,0.00,,,0.00,meteohub,2013-02-23 21:31:00,
2013-02-23 16:36:00,32.2,30.2,30.04,ESE,114,0.0,3.0,92,0.00,,,0.00,meteohub,2013-02-23 21:36:00,
2013-02-23 16:41:00,32.0,30.0,30.04,ESE,113,0.0,2.0,92,0.00,,,0.00,meteohub,2013-02-23 21:41:00,
2013-02-23 16:46:00,32.2,30.4,30.04,ESE,113,0.0,2.0,93,0.00,,,0.00,meteohub,2013-02-23 21:46:00,
2013-02-23 16:51:00,32.2,30.2,30.04,East,97,0.0,1.0,92,0.00,,,0.00,meteohub,2013-02-23 21:51:00,
2013-02-23 16:56:00,32.0,30.0,30.04,SE,142,1.0,2.0,92,0.00,,,0.00,meteohub,2013-02-23 21:56:00,
2013-02-23 17:01:00,32.0,30.0,30.03,ESE,115,0.0,2.0,92,0.00,,,0.00,meteohub,2013-02-23 22:01:00,
2013-02-23 17:06:00,32.0,30.0,30.03,ESE,111,0.0,3.0,92,0.00,,,0.00,meteohub,2013-02-23 22:06:00,
2013-02-23 17:11:00,32.0,30.0,30.03,ESE,116,0.0,4.0,92,0.00,,,0.00,meteohub,2013-02-23 22:11:00,
2013-02-23 17:17:00,31.8,29.5,30.03,SE,132,0.0,4.0,91,0.00,,,0.00,meteohub,2013-02-23 22:17:00,
2013-02-23 17:22:00,31.8,29.8,30.03,SE,130,1.0,5.0,92,0.00,,,0.00,meteohub,2013-02-23 22:22:00,
2013-02-23 17:27:00,31.8,29.5,30.03,ESE,114,0.0,5.0,91,0.00,,,0.00,meteohub,2013-02-23 22:27:00,
2013-02-23 17:32:00,31.8,29.8,30.02,ESE,110,0.0,5.0,92,0.00,,,0.00,meteohub,2013-02-23 22:32:00,
2013-02-23 17:37:00,31.8,29.8,30.02,ESE,110,0.0,2.0,92,0.00,,,0.00,meteohub,2013-02-23 22:37:00,
2013-02-23 17:42:00,31.8,29.8,30.02,ESE,110,0.0,2.0,92,0.00,,,0.00,meteohub,2013-02-23 22:42:00,
2013-02-23 17:47:00,31.6,29.7,30.02,ESE,110,0.0,1.0,92,0.00,,,0.00,meteohub,2013-02-23 22:47:00,
2013-02-23 17:52:00,31.6,29.7,30.02,East,91,0.0,2.0,92,0.00,,,0.00,meteohub,2013-02-23 22:52:00,
2013-02-23 17:57:00,31.6,29.7,30.02,SE,128,3.0,3.0,92,0.00,,,0.00,meteohub,2013-02-23 22:57:00,
2013-02-23 18:02:00,31.6,29.7,30.02,SE,137,0.0,3.0,92,0.00,,,0.00,meteohub,2013-02-23 23:02:00,
2013-02-23 18:07:00,31.6,29.7,30.02,SE,137,0.0,3.0,92,0.00,,,0.00,meteohub,2013-02-23 23:07:00,
2013-02-23 18:12:00,31.6,29.7,30.02,ESE,116,1.0,3.0,92,0.00,,,0.00,meteohub,2013-02-23 23:12:00,
2013-02-23 18:17:00,31.5,29.5,30.02,East,94,1.0,2.0,92,0.00,,,0.00,meteohub,2013-02-23 23:17:00,
2013-02-23 18:22:00,31.5,29.5,30.01,ESE,121,2.0,2.0,92,0.00,,,0.00,meteohub,2013-02-23 23:22:00,
2013-02-23 18:27:00,31.5,29.5,30.01,ENE,73,0.0,2.0,92,0.00,,,0.00,meteohub,2013-02-23 23:27:00,
2013-02-23 18:32:00,31.6,29.7,30.01,SE,126,2.0,2.0,92,0.00,,,0.00,meteohub,2013-02-23 23:32:00,
2013-02-23 18:37:00,31.6,29.7,30.01,ESE,121,0.0,2.0,92,0.00,,,0.00,meteohub,2013-02-23 23:37:00,
2013-02-23 18:42:00,31.6,29.7,30.01,ESE,121,0.0,2.0,92,0.00,,,0.00,meteohub,2013-02-23 23:42:00,
2013-02-23 18:47:00,31.6,29.7,30.01,ESE,114,0.0,2.0,92,0.00,,,0.00,meteohub,2013-02-23 23:47:00,
2013-02-23 18:52:00,31.6,29.7,30.01,ESE,114,0.0,2.0,92,0.00,,,0.00,meteohub,2013-02-23 23:52:00,
2013-02-23 18:57:00,31.5,29.7,30.01,ESE,114,0.0,2.0,93,0.00,,,0.00,meteohub,2013-02-23 23:57:00,
2013-02-23 19:02:00,31.5,29.7,30.01,East,96,0.0,2.0,93,0.00,,,0.00,meteohub,2013-02-24 00:02:00,
2013-02-23 19:07:00,31.5,29.5,30.00,ESE,121,0.0,2.0,92,0.00,,,0.00,meteohub,2013-02-24 00:07:00,
2013-02-23 19:12:00,31.5,29.5,30.00,ESE,119,0.0,3.0,92,0.00,,,0.00,meteohub,2013-02-24 00:12:00,
2013-02-23 19:17:00,31.5,29.5,30.00,NNW,342,0.0,3.0,92,0.00,,,0.00,meteohub,2013-02-24 00:17:00,
2013-02-23 19:22:00,31.6,29.7,30.00,ESE,114,0.0,4.0,92,0.00,,,0.00,meteohub,2013-02-24 00:22:00,
2013-02-23 19:27:00,31.6,29.8,30.00,ESE,116,1.0,5.0,93,0.00,,,0.00,meteohub,2013-02-24 00:27:00,
2013-02-23 19:32:00,31.6,29.7,29.99,ESE,119,1.0,5.0,92,0.00,,,0.00,meteohub,2013-02-24 00:32:00,
2013-02-23 19:37:00,31.6,29.8,29.99,ESE,117,0.0,3.0,93,0.00,,,0.00,meteohub,2013-02-24 00:37:00,
2013-02-23 19:42:00,31.6,29.8,29.99,ESE,108,0.0,3.0,93,0.00,,,0.00,meteohub,2013-02-24 00:42:00,
2013-02-23 19:47:00,31.6,29.8,29.99,East,95,0.0,2.0,93,0.00,,,0.00,meteohub,2013-02-24 00:47:00,
2013-02-23 19:52:00,31.6,29.8,29.99,SSE,155,0.0,2.0,93,0.00,,,0.00,meteohub,2013-02-24 00:52:00,
2013-02-23 19:57:00,31.6,29.8,29.99,SSE,153,0.0,2.0,93,0.00,,,0.00,meteohub,2013-02-24 00:57:00,
2013-02-23 20:02:00,31.5,29.7,29.99,ESE,109,0.0,2.0,93,0.00,,,0.00,meteohub,2013-02-24 01:02:00,
2013-02-23 20:07:00,31.5,29.7,29.99,ESE,114,1.0,4.0,93,0.00,,,0.00,meteohub,2013-02-24 01:07:00,
2013-02-23 20:12:00,31.5,29.7,29.99,ESE,116,0.0,4.0,93,0.00,,,0.00,meteohub,2013-02-24 01:12:00,
2013-02-23 20:17:00,31.6,29.8,29.99,ESE,120,2.0,4.0,93,0.00,,,0.00,meteohub,2013-02-24 01:17:00,
2013-02-23 20:22:00,31.5,29.7,29.99,ESE,112,1.0,5.0,93,0.00,,,0.00,meteohub,2013-02-24 01:22:00,
2013-02-23 20:27:00,31.6,29.8,29.99,ESE,116,1.0,5.0,93,0.00,,,0.00,meteohub,2013-02-24 01:27:00,
2013-02-23 20:32:00,31.6,29.8,29.99,ESE,116,1.0,5.0,93,0.00,,,0.00,meteohub,2013-02-24 01:32:00,
2013-02-23 20:37:00,31.6,29.7,29.99,ESE,112,0.0,5.0,92,0.00,,,0.00,meteohub,2013-02-24 01:37:00,
2013-02-23 20:42:00,31.6,29.7,29.99,ESE,117,0.0,5.0,92,0.00,,,0.00,meteohub,2013-02-24 01:42:00,
2013-02-23 20:47:00,31.6,29.7,29.99,East,100,1.0,5.0,92,0.00,,,0.00,meteohub,2013-02-24 01:47:00,
2013-02-23 20:52:00,31.6,29.7,29.99,SE,128,0.0,3.0,92,0.00,,,0.00,meteohub,2013-02-24 01:52:00,
2013-02-23 20:57:00,31.6,29.7,29.98,ESE,114,1.0,3.0,92,0.00,,,0.00,meteohub,2013-02-24 01:57:00,
2013-02-23 21:02:00,31.6,29.8,29.98,ESE,114,0.0,3.0,93,0.00,,,0.00,meteohub,2013-02-24 02:02:00,
2013-02-23 21:07:00,31.5,29.7,29.98,ESE,117,0.0,2.0,93,0.00,,,0.00,meteohub,2013-02-24 02:07:00,
2013-02-23 21:12:00,31.6,29.8,29.98,ESE,117,0.0,2.0,93,0.00,,,0.00,meteohub,2013-02-24 02:12:00,
2013-02-23 21:17:00,31.5,29.7,29.98,East,100,0.0,2.0,93,0.00,,,0.00,meteohub,2013-02-24 02:17:00,
2013-02-23 21:22:00,31.5,29.7,29.98,East,100,0.0,2.0,93,0.00,,,0.00,meteohub,2013-02-24 02:22:00,
2013-02-23 21:27:00,31.5,29.7,29.97,East,100,0.0,2.0,93,0.00,,,0.00,meteohub,2013-02-24 02:27:00,
2013-02-23 21:32:00,31.5,29.7,29.97,East,100,0.0,2.0,93,0.00,,,0.00,meteohub,2013-02-24 02:32:00,
2013-02-23 21:37:00,31.5,29.7,29.97,ESE,109,1.0,0.0,93,0.00,,,0.00,meteohub,2013-02-24 02:37:00,
2013-02-23 21:42:00,31.5,29.7,29.97,ESE,112,0.0,2.0,93,0.00,,,0.00,meteohub,2013-02-24 02:42:00,
2013-02-23 21:47:00,31.5,30.0,29.96,ESE,112,0.0,2.0,94,0.00,,,0.00,meteohub,2013-02-24 02:47:00,
2013-02-23 21:52:00,31.3,29.8,29.96,ESE,112,0.0,2.0,94,0.00,,,0.00,meteohub,2013-02-24 02:52:00,
2013-02-23 21:57:00,31.3,29.8,29.96,SE,137,0.0,2.0,94,0.00,,,0.00,meteohub,2013-02-24 02:57:00,
2013-02-23 22:02:00,31.3,29.8,29.96,ESE,122,0.0,2.0,94,0.00,,,0.00,meteohub,2013-02-24 03:02:00,
2013-02-23 22:07:00,31.3,29.8,29.96,ESE,122,0.0,2.0,94,0.00,,,0.00,meteohub,2013-02-24 03:07:00,
2013-02-23 22:12:00,31.3,29.8,29.95,ESE,119,0.0,2.0,94,0.00,,,0.00,meteohub,2013-02-24 03:12:00,
2013-02-23 22:17:00,31.3,29.8,29.95,ESE,113,1.0,1.0,94,0.00,,,0.00,meteohub,2013-02-24 03:17:00,
2013-02-23 22:22:00,31.5,30.0,29.95,ESE,113,0.0,2.0,94,0.00,,,0.00,meteohub,2013-02-24 03:22:00,
2013-02-23 22:27:00,31.5,30.0,29.94,ESE,113,1.0,2.0,94,0.00,,,0.00,meteohub,2013-02-24 03:27:00,
2013-02-23 22:32:00,31.3,29.8,29.94,ESE,113,0.0,2.0,94,0.00,,,0.00,meteohub,2013-02-24 03:32:00,
2013-02-23 22:37:00,31.3,29.8,29.94,ESE,113,0.0,1.0,94,0.00,,,0.00,meteohub,2013-02-24 03:37:00,
2013-02-23 22:42:00,31.3,29.8,29.94,ESE,113,2.0,2.0,94,0.00,,,0.00,meteohub,2013-02-24 03:42:00,
2013-02-23 22:47:00,31.5,29.7,29.94,ESE,114,2.0,2.0,93,0.00,,,0.00,meteohub,2013-02-24 03:47:00,
2013-02-23 22:52:00,31.5,29.7,29.94,ESE,116,0.0,5.0,93,0.00,,,0.00,meteohub,2013-02-24 03:52:00,
2013-02-23 22:57:00,31.5,29.7,29.94,ESE,109,1.0,5.0,93,0.00,,,0.00,meteohub,2013-02-24 03:57:00,
2013-02-23 23:03:00,31.6,29.8,29.94,ESE,114,0.0,5.0,93,0.00,,,0.00,meteohub,2013-02-24 04:03:00,
2013-02-23 23:08:00,31.6,29.8,29.94,ESE,108,1.0,3.0,93,0.00,,,0.00,meteohub,2013-02-24 04:08:00,
2013-02-23 23:13:00,31.6,29.8,29.93,ESE,102,1.0,3.0,93,0.00,,,0.00,meteohub,2013-02-24 04:13:00,
2013-02-23 23:18:00,31.6,29.8,29.93,ESE,120,2.0,3.0,93,0.00,,,0.00,meteohub,2013-02-24 04:18:00,
2013-02-23 23:23:00,31.6,29.8,29.93,ESE,114,0.0,3.0,93,0.00,,,0.00,meteohub,2013-02-24 04:23:00,
2013-02-23 23:28:00,31.6,29.8,29.93,ESE,122,3.0,3.0,93,0.00,,,0.00,meteohub,2013-02-24 04:28:00,
2013-02-23 23:33:00,31.6,29.7,29.93,ESE,118,0.0,3.0,92,0.00,,,0.00,meteohub,2013-02-24 04:33:00,
2013-02-23 23:38:00,31.6,29.8,29.93,ESE,113,1.0,3.0,93,0.00,,,0.00,meteohub,2013-02-24 04:38:00,
2013-02-23 23:43:00,31.6,29.7,29.93,ESE,110,0.0,3.0,92,0.00,,,0.00,meteohub,2013-02-24 04:43:00,
2013-02-23 23:48:00,31.6,29.7,29.93,ESE,112,0.0,3.0,92,0.00,,,0.00,meteohub,2013-02-24 04:48:00,
2013-02-23 23:53:00,31.5,29.7,29.93,ESE,112,0.0,3.0,93,0.00,,,0.00,meteohub,2013-02-24 04:53:00,
2013-02-23 23:58:00,31.5,29.7,29.93,ESE,112,0.0,3.0,93,0.00,,,0.00,meteohub,2013-02-24 04:58:00,